Date String (YYYY-MM-DD hh:mm:ss) UTC,Instrument flags,absolute air pressure of the measurement (hPa),sample flow rate (lpm),inlet stack bypass flow (lpm),air temperature of the measurement (°C),ambient temperature measured by the external sensor (°C),aerosol sample conditioner tube jacket temperature (°C),OPC LED temperature (°C),internal box temperature (°C),relative humidity of the measurement (%),span deviation,mass concentration of particles derived from Lorenz-Mie calculation of OPC scattering (μg/m³),mass concentration of particles derived from Lorenz-Mie calculation of OPC scattering (μg/m³),mass concentration of particles derived from Lorenz-Mie calculation of OPC scattering (μg/m³)
DateTimeUTC,F1_M11,P_M11,Q1_M11,Q2_M11,T1_M11,T2_M11,T3_M11,T4_M11,T5_M11,U1_M11,ZSPAN_M11,X0_M11,X2_M11,X1_M11
2023-12-28 09:00:00,SystemResetWarning,0831.7,5.01,000.00,019.1,018.0,000.0,027.5,020.3,9.0,0000.0,0003.07,0000.73,0000.53
2023-12-28 09:01:00,SystemResetWarning,0831.7,5.00,000.00,019.1,018.0,000.0,027.5,020.3,9.1,0000.0,0003.07,0000.74,0000.54
2023-12-28 09:02:00,SystemResetWarning,0831.7,5.00,000.00,019.1,017.9,000.0,027.4,020.3,9.2,0000.0,0003.13,0000.76,0000.54
2023-12-28 09:03:00,SystemResetWarning,0831.7,5.00,000.00,019.1,017.9,000.0,027.4,020.3,9.0,0000.0,0002.27,0000.77,0000.54
2023-12-28 09:04:00,SystemResetWarning,0831.7,4.99,000.00,019.1,017.9,000.0,027.4,020.3,8.7,0000.0,0001.54,0000.76,0000.54
2023-12-28 09:05:00,SystemResetWarning,0831.7,5.00,000.00,019.0,017.9,000.0,027.4,020.3,8.6,0000.0,0001.39,0000.78,0000.54
2023-12-28 09:06:00,SystemResetWarning,0831.7,5.00,000.00,019.0,017.9,000.0,027.4,020.3,8.6,0000.0,0001.32,0000.77,0000.54
2023-12-28 09:07:00,SystemResetWarning,0831.6,4.99,000.00,019.0,017.9,000.0,027.4,020.3,8.3,0000.0,0001.30,0000.76,0000.53
2023-12-28 09:08:00,SystemResetWarning,0831.6,5.00,000.00,019.0,017.9,000.0,027.4,020.3,8.3,0000.0,0001.26,0000.74,0000.51
2023-12-28 09:09:00,SystemResetWarning,0831.6,5.01,000.00,019.0,017.9,000.0,027.4,020.3,8.5,0000.0,0001.17,0000.73,0000.49
2023-12-28 09:10:00,SystemResetWarning,0831.6,5.01,000.00,019.0,017.9,000.0,027.4,020.3,8.5,0000.0,0001.14,0000.72,0000.48
2023-12-28 09:11:00,SystemResetWarning,0831.6,5.01,000.00,019.0,017.9,000.0,027.4,020.3,8.5,0000.0,0001.11,0000.70,0000.47
2023-12-28 09:12:00,SystemResetWarning,0831.6,5.01,000.00,019.0,017.8,000.0,027.4,020.2,8.6,0000.0,0001.06,0000.67,0000.45
2023-12-28 09:13:00,SystemResetWarning,0831.6,4.99,000.00,019.0,017.8,000.0,027.4,020.2,8.6,0000.0,0000.94,0000.60,0000.43
2023-12-28 09:14:00,SystemResetWarning,0831.5,5.00,000.00,019.0,017.8,000.0,027.3,020.2,8.6,0000.0,0000.84,0000.57,0000.42
2023-12-28 09:15:00,SystemResetWarning,0831.5,5.00,000.00,019.0,017.8,000.0,027.3,020.2,8.4,0000.0,0000.80,0000.55,0000.42
2023-12-28 09:16:00,SystemResetWarning,0831.5,5.00,000.00,019.0,017.8,000.0,027.3,020.2,8.5,0000.0,0001.05,0000.52,0000.41
2023-12-28 09:17:00,SystemResetWarning,0831.5,5.00,000.00,018.9,017.8,000.0,027.3,020.2,8.7,0000.0,0001.17,0000.54,0000.42
2023-12-28 09:18:00,SystemResetWarning,0831.5,5.00,000.00,018.9,017.9,000.0,027.3,020.1,8.8,0000.0,0001.21,0000.56,0000.44
2023-12-28 09:19:00,SystemResetWarning,0831.5,5.01,000.00,018.9,017.9,000.0,027.3,020.1,8.8,0000.0,0001.26,0000.60,0000.46
2023-12-28 09:20:00,SystemResetWarning,0831.5,5.00,000.00,018.9,017.9,000.0,027.3,020.0,8.9,0000.0,0001.26,0000.61,0000.48
2023-12-28 09:21:00,SystemResetWarning,0831.5,5.00,000.00,018.9,017.8,000.0,027.3,020.0,8.9,0000.0,0001.31,0000.63,0000.50
2023-12-28 09:22:00,SystemResetWarning,0831.4,4.99,000.00,018.9,017.8,000.0,027.3,020.0,8.9,0000.0,0001.34,0000.66,0000.52
2023-12-28 09:23:00,SystemResetWarning,0831.5,5.00,000.00,018.9,017.8,000.0,027.3,020.0,8.9,0000.0,0001.35,0000.68,0000.54
2023-12-28 09:24:00,SystemResetWarning,0831.5,4.99,000.00,018.9,017.8,000.0,027.3,020.0,8.9,0000.0,0001.38,0000.70,0000.55
2023-12-28 09:25:00,SystemResetWarning,0831.5,5.00,000.00,018.9,017.8,000.0,027.3,020.0,8.9,0000.0,0001.41,0000.72,0000.57
2023-12-28 09:26:00,SystemResetWarning,0831.5,5.00,000.00,018.8,017.8,000.0,027.2,020.0,8.7,0000.0,0001.43,0000.74,0000.58
2023-12-28 09:27:00,SystemResetWarning,0831.5,5.00,000.00,018.8,017.8,000.0,027.2,020.0,8.7,0000.0,0001.20,0000.77,0000.60
2023-12-28 09:28:00,SystemResetWarning,0831.5,5.00,000.00,018.8,017.8,000.0,027.2,020.0,8.8,0000.0,0001.11,0000.78,0000.62
2023-12-28 09:29:00,SystemResetWarning,0831.5,5.00,000.00,018.8,017.8,000.0,027.2,020.0,8.7,0000.0,0001.10,0000.78,0000.61
2023-12-28 09:30:00,SystemResetWarning,0831.6,5.01,000.00,018.8,017.8,000.0,027.2,020.0,8.5,0000.0,0001.04,0000.74,0000.61
2023-12-28 09:31:00,SystemResetWarning,0831.6,5.00,000.00,018.8,017.8,000.0,027.2,020.0,8.4,0000.0,0001.03,0000.74,0000.61
2023-12-28 09:32:00,SystemResetWarning,0831.5,5.00,000.00,018.8,017.7,000.0,027.2,020.0,8.5,0000.0,0000.98,0000.73,0000.62
2023-12-28 09:33:00,SystemResetWarning,0831.5,5.00,000.00,018.8,017.7,000.0,027.2,020.0,8.6,0000.0,0001.05,0000.74,0000.61
2023-12-28 09:34:00,SystemResetWarning,0831.5,5.00,000.00,018.8,017.7,000.0,027.2,020.0,8.8,0000.0,0001.12,0000.76,0000.62
2023-12-28 09:35:00,SystemResetWarning,0831.5,5.00,000.00,018.8,017.7,000.0,027.2,020.0,8.9,0000.0,0001.11,0000.77,0000.63
2023-12-28 09:36:00,SystemResetWarning,0831.5,5.00,000.00,018.7,017.7,000.0,027.2,020.0,8.7,0000.0,0001.15,0000.78,0000.64
2023-12-28 09:37:00,SystemResetWarning,0831.5,5.00,000.00,018.7,017.7,000.0,027.2,020.0,8.6,0000.0,0001.20,0000.80,0000.64
2023-12-28 09:38:00,SystemResetWarning,0831.5,5.00,000.00,018.7,017.7,000.0,027.2,020.0,8.5,0000.0,0001.14,0000.78,0000.63
2023-12-28 09:39:00,SystemResetWarning,0831.5,5.00,000.00,018.7,017.7,000.0,027.1,020.0,8.6,0000.0,0001.12,0000.77,0000.62
2023-12-28 09:40:00,SystemResetWarning,0831.5,5.00,000.00,018.7,017.6,000.0,027.1,020.0,8.6,0000.0,0001.11,0000.76,0000.62
2023-12-28 09:41:00,SystemResetWarning,0831.5,5.00,000.00,018.7,017.6,000.0,027.2,020.0,8.5,0000.0,0001.12,0000.76,0000.62
2023-12-28 09:42:00,SystemResetWarning,0831.6,5.00,000.00,018.7,017.6,000.0,027.2,020.0,8.4,0000.0,0001.13,0000.76,0000.62
2023-12-28 09:43:00,SystemResetWarning,0831.5,5.00,000.00,018.7,017.6,000.0,027.2,020.0,8.0,0000.0,0001.19,0000.77,0000.61
2023-12-28 09:44:00,SystemResetWarning,0831.5,5.00,000.00,018.7,017.6,000.0,027.2,020.0,8.1,0000.0,0001.15,0000.77,0000.62
2023-12-28 09:45:00,SystemResetWarning,0831.5,5.00,000.00,018.7,017.6,000.0,027.2,020.0,8.1,0000.0,0001.09,0000.75,0000.63
2023-12-28 09:46:00,SystemResetWarning,0831.5,5.01,000.00,018.7,017.5,000.0,027.2,020.0,8.2,0000.0,0001.12,0000.77,0000.63
2023-12-28 09:47:00,SystemResetWarning,0831.5,5.01,000.00,018.7,017.5,000.0,027.2,020.0,8.3,0000.0,0001.17,0000.76,0000.63
2023-12-28 09:48:00,SystemResetWarning,0831.5,5.01,000.00,018.7,017.5,000.0,027.2,020.0,8.1,0000.0,0001.13,0000.74,0000.63
2023-12-28 09:49:00,SystemResetWarning,0831.5,5.00,000.00,018.7,017.5,000.0,027.2,020.0,8.0,0000.0,0001.10,0000.73,0000.64
2023-12-28 09:50:00,SystemResetWarning,0831.5,4.99,000.00,018.7,017.5,000.0,027.2,020.0,8.0,0000.0,0001.11,0000.74,0000.65
2023-12-28 09:51:00,SystemResetWarning,0831.5,5.00,000.00,018.7,017.5,000.0,027.2,020.0,8.0,0000.0,0001.12,0000.75,0000.65
2023-12-28 09:52:00,SystemResetWarning,0831.5,5.01,000.00,018.7,017.5,000.0,027.2,020.0,8.0,0000.0,0001.09,0000.74,0000.65
2023-12-28 09:53:00,SystemResetWarning,0831.4,5.01,000.00,018.7,017.5,000.0,027.2,020.0,8.0,0000.0,0001.06,0000.72,0000.63
2023-12-28 09:54:00,SystemResetWarning,0831.4,5.01,000.00,018.7,017.5,000.0,027.2,020.0,8.1,0000.0,0000.98,0000.69,0000.63
2023-12-28 09:55:00,SystemResetWarning,0831.4,5.00,000.00,018.7,017.5,000.0,027.2,020.0,8.1,0000.0,0000.91,0000.66,0000.61
2023-12-28 09:56:00,SystemResetWarning,0831.4,5.00,000.00,018.7,017.5,000.0,027.2,020.0,8.2,0000.0,0000.90,0000.63,0000.58
2023-12-28 09:57:00,SystemResetWarning,0831.3,5.00,000.00,018.7,017.5,000.0,027.2,020.0,8.3,0000.0,0000.94,0000.61,0000.56
2023-12-28 09:58:00,SystemResetWarning,0831.3,5.00,000.00,018.7,017.5,000.0,027.2,020.0,8.4,0000.0,0000.80,0000.58,0000.54
2023-12-28 09:59:00,SystemResetWarning,0831.3,5.00,000.00,018.6,017.5,000.0,027.2,020.0,8.6,0000.0,0000.82,0000.58,0000.53
